Theta_e
310 310 309 309 310 311 311 310 310 311 314 314 314 316 316 315 314 312 312 313 314 314 313 312 313 313 311 307 300 296 295 295 294 294 294 294 294 294 293 293 293 292 292 292 292 291 291 291 291 291 290 290 290 290 290 289 289 289 289 289 288 288 288 288 288 288 288 288 288 287 287 286 286 286 285 285 284 284 284 284 284 284 284 284 284
311 310 309 309 310 311 311 310 309 311 314 315 315 315 314 313 313 312 312 313 313 314 313 313 312 311 309 305 298 295 295 294 294 294 294 294 293 293 293 293 292 292 292 292 291 291 291 290 290 290 290 290 290 290 289 289 289 289 289 288 288 288 288 288 288 288 288 288 288 288 287 286 286 286 285 285 284 285 285 285 284 284 284 284 284
311 310 309 309 309 310 311 310 310 311 314 315 315 314 312 313 313 312 312 313 312 312 312 312 311 309 306 302 297 295 294 294 293 293 293 293 293 293 293 292 292 292 292 291 291 290 290 290 290 290 290 290 290 289 289 289 288 288 288 288 288 288 288 288 288 288 288 288 288 288 287 287 286 286 286 285 285 285 285 285 284 284 284 284 284
311 310 310 309 309 309 310 310 310 311 313 315 314 312 312 313 312 311 312 312 311 311 311 311 309 306 303 299 295 294 294 294 293 293 293 293 293 293 292 292 292 291 291 291 290 290 289 289 289 290 290 290 290 289 289 289 288 288 288 288 288 288 288 287 287 287 287 287 288 288 287 287 287 286 286 285 285 285 285 285 284 284 284 284 284
311 311 310 309 308 308 309 310 309 311 313 313 313 312 312 312 311 310 311 312 310 310 311 310 308 305 300 297 295 294 294 294 293 293 293 293 293 292 292 292 291 291 290 290 290 289 289 290 291 291 291 291 290 290 289 288 288 288 287 287 287 287 287 287 287 287 287 287 287 287 287 287 287 286 286 285 285 285 285 285 285 284 284 285 285
311 310 310 309 308 308 308 309 309 310 312 313 313 313 313 311 310 309 310 311 311 310 310 309 307 304 298 295 294 294 294 294 293 293 293 293 292 292 292 291 291 290 290 289 289 289 290 292 293 294 294 293 291 290 289 288 288 287 287 287 287 287 287 287 287 287 287 287 287 287 287 287 287 286 286 285 285 285 285 285 285 285 285 285 285
311 310 309 309 308 308 308 308 309 310 311 312 312 313 313 312 310 309 309 310 310 310 310 309 307 304 299 294 294 294 293 293 293 293 293 292 292 292 291 291 291 290 289 289 289 291 293 295 295 295 295 295 294 292 290 288 288 287 287 287 287 287 287 287 287 287 287 287 287 287 287 287 287 286 286 285 285 285 285 285 285 285 285 285 286
311 310 309 309 309 308 308 308 309 309 310 310 311 312 313 312 311 310 309 310 310 309 310 309 307 304 299 295 293 293 293 293 293 293 292 292 292 291 291 291 290 290 289 290 291 293 295 296 296 296 296 295 295 293 291 290 289 288 288 287 287 287 287 287 287 287 287 287 287 287 287 287 287 286 286 285 285 285 285 285 285 286 285 285 285
311 310 309 309 309 308 308 308 308 309 309 309 310 311 312 311 311 311 310 309 309 309 309 309 307 304 299 295 293 293 293 293 293 292 292 292 292 291 291 290 290 290 290 291 293 294 295 296 296 296 295 295 295 294 293 292 291 290 289 288 288 287 287 287 287 287 287 287 287 287 287 287 287 286 286 286 286 286 285 285 286 286 285 285 285
311 310 309 308 308 308 308 307 308 308 308 309 310 311 311 309 309 310 310 309 309 308 309 308 306 302 299 295 293 292 293 292 292 292 292 292 292 291 291 290 290 290 291 292 293 294 295 296 296 296 295 295 294 294 294 293 293 292 291 290 289 288 287 287 287 287 287 287 287 287 287 287 287 287 286 286 286 286 286 285 285 285 285 284 284
311 310 309 308 308 307 307 307 307 307 308 309 310 310 310 308 308 309 309 309 309 308 308 307 306 302 298 296 294 293 293 292 292 292 292 292 291 291 290 290 290 290 291 292 294 295 295 296 296 295 295 294 294 294 294 293 293 293 292 292 291 290 289 288 288 288 287 287 287 287 287 287 287 287 286 287 286 286 286 285 285 285 285 284 284
310 310 308 308 307 307 307 307 307 307 307 307 308 309 309 308 307 308 308 308 308 308 308 308 306 302 297 295 293 292 292 292 292 292 292 291 291 290 290 289 289 290 291 293 295 295 295 295 296 295 295 294 293 293 293 293 293 293 293 292 292 291 290 289 289 288 288 288 288 287 287 288 288 287 287 287 286 285 285 285 285 285 284 284 284
310 309 308 307 306 306 306 306 306 306 306 306 306 306 307 307 307 307 307 307 307 307 307 306 305 301 296 293 292 292 292 292 292 291 291 291 290 290 289 288 289 290 293 294 295 294 294 295 295 295 295 294 293 292 292 292 292 292 292 292 292 292 291 290 289 289 288 288 288 288 288 288 288 288 287 286 286 285 285 285 285 284 284 283 284
310 309 308 307 306 305 305 305 305 305 305 305 305 305 305 306 306 306 306 306 306 306 305 305 303 300 296 293 292 291 292 292 292 291 291 291 290 289 289 288 289 292 294 295 294 294 294 294 294 295 294 294 293 292 292 291 291 291 291 291 291 291 291 291 290 289 289 288 288 288 289 288 288 287 287 286 286 285 285 285 284 284 283 283 284
310 309 307 306 305 305 304 304 304 304 304 304 304 305 305 305 305 305 305 305 305 305 304 303 301 298 295 293 292 291 291 291 292 292 291 290 290 289 289 289 290 292 294 294 294 294 293 293 294 294 294 294 293 292 292 291 291 291 291 291 291 291 291 291 290 290 290 289 288 288 288 288 287 287 287 286 286 285 285 285 285 284 284 284 284
309 308 306 305 304 304 303 303 303 302 302 303 303 304 304 305 305 305 305 305 304 303 302 301 299 296 294 293 291 290 291 291 291 292 291 290 289 289 289 289 291 292 293 293 294 294 292 292 292 294 294 294 293 292 292 291 291 291 290 290 290 290 290 290 290 290 290 289 289 288 287 287 286 286 286 286 286 285 285 284 284 284 284 283 284
308 306 305 304 303 303 302 302 302 302 301 301 302 303 303 304 304 304 304 304 303 302 301 300 297 294 293 292 290 290 291 290 290 291 290 289 289 289 289 290 291 291 292 293 293 293 292 291 292 293 294 293 293 292 291 291 291 291 290 290 290 290 290 289 289 289 289 288 288 288 287 287 286 286 286 286 285 284 284 284 284 283 283 282 283
307 305 304 303 303 302 301 301 301 300 300 300 301 301 302 302 303 303 303 303 302 301 300 299 296 292 291 290 289 290 290 290 289 290 290 289 289 289 290 289 290 291 292 292 292 291 291 290 291 293 293 293 292 291 290 290 290 290 290 290 289 289 289 289 288 288 287 287 287 286 286 286 286 285 285 285 284 283 282 282 283 282 281 281 282
305 304 303 303 301 301 300 300 299 299 299 299 299 300 301 301 301 301 301 300 299 298 297 297 295 292 290 288 288 288 288 288 288 288 288 288 289 289 289 289 289 290 291 291 291 291 291 291 292 293 293 292 291 290 289 289 288 288 288 288 288 288 288 288 287 286 286 285 285 285 285 285 285 284 283 283 282 281 280 281 281 280 280 281 281
304 303 302 301 300 300 299 298 298 298 298 298 298 298 299 299 299 299 299 298 297 296 296 296 295 294 293 290 289 288 287 287 287 287 288 288 289 289 289 288 289 290 291 291 290 290 291 291 292 293 292 291 290 289 288 287 287 287 286 286 287 288 287 286 285 284 284 284 284 284 284 284 284 283 283 282 282 281 280 280 280 280 280 280 280
303 302 301 300 299 299 298 298 297 297 297 297 297 297 297 297 297 297 297 297 297 296 296 295 295 295 294 293 291 289 288 288 288 288 289 290 290 289 289 289 290 290 290 290 290 290 291 292 293 292 290 289 288 287 287 286 285 286 286 286 286 286 285 284 284 283 283 283 283 283 283 283 283 283 283 283 282 282 281 281 281 280 280 280 279
302 301 300 299 299 298 298 297 297 297 297 297 297 297 297 296 296 295 296 296 296 295 295 295 294 294 294 293 293 292 291 290 290 290 290 291 290 290 289 290 290 290 289 290 290 292 292 292 291 290 288 288 288 287 287 286 285 285 286 285 285 284 283 283 283 283 282 283 283 283 283 283 283 283 283 283 283 282 281 281 281 280 280 280 279
301 300 300 299 299 298 298 297 297 297 297 297 297 296 296 295 295 294 294 294 294 294 294 294 294 293 293 293 293 292 292 292 291 291 291 290 290 290 290 290 290 290 291 291 292 292 291 290 289 288 288 288 288 287 287 286 285 285 285 284 283 283 282 282 282 282 282 282 282 282 282 282 282 282 283 282 282 281 280 280 279 279 279 279 279
300 300 299 299 299 298 298 297 297 297 297 296 296 295 294 294 294 293 293 292 292 292 293 293 293 293 293 293 292 291 291 291 291 291 291 290 291 291 291 291 291 291 291 291 291 290 289 289 289 289 288 288 288 287 286 286 285 284 284 283 282 282 282 281 281 281 281 281 281 281 281 281 281 281 281 281 280 280 280 279 279 278 278 278 278
300 300 299 298 298 298 297 297 296 296 296 295 295 294 294 293 293 293 293 293 293 293 293 293 294 294 293 293 293 292 292 292 292 291 291 291 291 291 291 291 290 290 290 290 290 290 289 289 289 289 288 288 288 287 287 286 285 284 283 283 282 281 281 281 281 281 281 281 281 281 281 281 281 280 280 280 279 279 279 278 278 278 278 278 278
302 301 300 299 298 298 298 297 296 296 295 295 295 294 294 294 294 294 294 295 294 294 294 294 294 293 293 293 292 292 291 291 290 290 290 290 290 289 289 289 289 289 290 290 290 289 289 289 288 288 288 288 288 287 287 286 286 285 284 283 282 281 281 280 280 280 280 280 280 280 280 279 279 279 279 279 278 278 278 278 278 278 278 277 277
303 302 301 300 300 299 299 299 298 297 297 296 296 296 296 296 296 295 295 295 295 294 294 293 293 292 291 291 290 290 290 289 289 289 289 289 289 289 289 289 289 289 289 289 289 289 288 288 288 288 288 288 287 287 286 285 285 284 283 282 281 281 280 280 279 279 279 279 279 279 279 279 279 278 278 278 278 278 278 277 277 277 277 276 276
302 302 301 301 301 300 299 299 299 299 298 297 297 297 296 296 296 295 294 293 293 292 292 291 291 291 290 290 290 290 290 290 289 289 289 289 289 289 289 289 289 289 289 289 288 288 288 288 288 288 287 287 286 286 285 285 284 284 283 282 281 280 280 279 279 278 278 278 278 278 278 278 278 278 277 277 277 277 277 277 277 277 276 276 275
301 301 301 301 301 300 300 299 299 298 298 297 296 296 295 294 293 293 292 291 291 291 291 291 290 290 290 290 290 290 290 290 289 289 289 289 289 289 289 289 289 289 289 288 288 288 288 288 288 287 287 286 286 285 285 284 283 283 282 281 280 279 279 279 278 278 278 278 277 277 277 277 277 277 276 276 276 276 276 276 276 276 276 275 275
300 300 300 300 299 299 298 297 297 296 296 295 295 294 293 292 292 291 291 291 291 290 290 290 290 290 290 290 290 290 290 290 289 289 289 289 289 289 289 289 289 289 288 288 288 288 288 287 287 287 286 286 285 284 283 282 281 280 280 279 278 278 278 278 278 278 277 277 277 277 276 276 276 276 276 276 276 275 275 275 275 275 275 274 274
298 297 297 296 296 295 295 295 294 294 294 293 293 292 292 291 291 291 290 290 290 290 290 290 290 290 290 290 290 290 289 289 289 289 289 289 289 289 289 288 288 288 287 287 287 287 287 286 286 285 285 284 283 282 281 280 279 279 279 278 278 278 277 277 277 277 277 277 276 276 276 276 276 276 275 275 275 275 275 275 274 274 274 274 273
294 294 293 293 292 292 292 292 292 292 291 291 291 291 291 290 290 290 290 290 290 290 290 290 290 289 289 289 290 289 290 289 289 289 289 288 288 288 288 287 287 287 287 286 286 286 285 284 284 283 282 282 281 281 280 279 279 279 278 278 278 277 277 277 277 277 277 276 276 276 276 276 276 276 276 275 275 275 275 275 274 274 274 274 273
291 291 291 291 291 290 290 290 290 290 290 290 290 290 290 290 290 290 290 290 289 289 289 289 289 289 290 290 289 289 289 289 288 288 288 287 287 287 287 286 286 286 286 285 285 284 284 283 282 282 281 280 280 280 279 279 279 278 278 278 277 277 277 276 276 276 276 276 276 276 276 276 276 276 275 275 275 275 275 275 275 275 274 274 274
291 291 291 290 290 290 290 290 290 290 290 290 290 290 290 290 289 289 289 289 289 289 289 289 289 290 289 289 289 289 288 288 287 287 287 287 286 286 286 285 285 285 284 284 284 283 283 282 282 281 280 280 279 279 279 278 278 278 277 277 277 276 276 276 276 276 275 275 275 275 275 275 275 275 275 275 275 275 275 274 274 274 274 273 273
291 291 291 291 290 290 290 290 290 290 290 290 290 290 289 289 289 289 289 289 289 290 290 289 289 289 289 288 288 287 287 287 287 286 286 286 285 285 284 284 284 283 283 283 283 282 282 282 281 281 280 280 279 279 278 278 277 277 276 276 276 276 275 275 275 275 274 274 274 274 274 274 274 274 274 274 274 274 273 273 273 272 272 272 271
291 291 291 291 290 290 290 290 290 290 290 289 289 289 289 289 289 290 290 290 290 290 289 289 289 288 288 287 287 287 286 286 286 285 285 285 284 284 283 283 283 282 282 282 282 281 281 281 280 280 279 279 278 278 278 277 277 276 276 276 275 275 275 274 274 274 274 274 273 273 273 272 272 272 272 272 272 272 272 272 271 271 271 270 270
291 291 290 290 290 290 290 290 290 289 289 289 289 289 290 290 290 290 290 289 289 289 288 288 287 287 287 286 286 286 285 285 285 284 284 284 283 283 283 282 282 282 282 281 281 280 280 279 279 278 278 277 277 276 276 275 275 275 275 274 274 274 274 273 273 273 273 272 272 271 271 271 271 271 270 270 270 270 270 270 270 270 269 269 269
290 290 290 290 290 290 290 290 290 290 290 290 290 290 290 290 290 289 289 288 288 287 287 287 286 286 286 286 285 285 285 284 284 284 283 283 283 282 282 282 281 281 280 280 279 279 278 278 277 277 276 276 275 275 274 274 273 273 273 273 272 272 272 271 271 271 271 270 270 270 270 269 269 269 269 269 269 268 268 268 268 268 268 268 267
290 290 290 290 290 290 290 290 290 290 290 290 290 290 289 289 289 288 288 287 287 286 286 286 286 285 285 285 284 284 284 283 283 283 282 282 282 281 281 281 280 280 279 279 278 278 277 277 276 276 275 275 274 274 273 273 273 272 272 272 271 271 271 270 270 270 270 270 269 269 269 268 268 268 268 268 267 267 267 267 267 266 266 266 266
291 291 291 291 291 291 290 290 290 290 290 289 289 289 288 288 287 287 287 286 286 286 285 285 285 285 284 284 284 283 283 282 282 282 281 281 281 280 280 279 279 278 278 277 277 276 276 275 275 274 274 274 273 273 273 272 272 272 271 271 271 270 270 270 270 269 269 269 269 268 268 268 268 268 267 267 267 267 266 266 266 266 265 265 265
291 291 291 291 291 290 290 290 290 289 289 288 288 287 287 287 286 286 286 285 285 285 285 284 284 284 284 283 283 282 282 282 281 281 280 280 280 279 279 278 278 277 277 276 276 275 274 274 274 273 273 273 273 272 272 272 271 271 271 270 270 270 270 269 269 269 269 269 268 268 268 268 267 267 267 267 267 266 266 266 266 265 265 265 265
291 291 291 290 290 290 289 289 288 288 287 287 287 286 286 286 285 285 285 284 284 284 284 283 283 283 282 282 282 281 281 281 280 280 279 279 278 278 278 277 277 276 276 275 274 274 274 273 273 273 273 272 272 272 272 271 271 270 270 270 270 269 269 269 268 268 268 268 268 268 267 267 267 267 267 267 266 266 266 266 265 265 265 265 265
291 290 290 290 289 289 288 288 287 287 286 286 286 285 285 285 284 284 284 284 283 283 283 282 282 282 281 281 281 281 280 280 279 279 278 278 277 277 276 276 275 275 274 274 274 273 273 273 272 272 272 272 271 271 271 270 270 270 270 269 269 269 268 268 268 268 268 268 268 267 267 267 267 267 267 266 266 266 266 265 265 265 265 264 264
290 290 289 289 288 287 287 287 286 286 286 285 285 285 284 284 284 283 283 283 283 282 282 281 281 281 281 280 280 280 279 279 278 278 277 277 276 276 275 275 274 274 274 273 273 273 272 272 272 272 271 271 271 270 270 270 270 269 269 269 269 269 268 268 268 268 268 268 268 268 267 267 267 266 266 266 266 266 266 265 265 264 264 264 264
289 289 288 287 287 286 286 286 285 285 285 284 284 284 283 283 283 283 282 282 282 281 281 281 280 280 280 279 279 278 278 278 277 276 276 275 275 274 274 274 273 273 273 273 272 272 272 272 271 271 271 270 270 270 269 269 269 269 269 269 269 269 269 269 268 268 268 268 268 268 268 267 267 267 266 266 266 265 265 265 265 264 264 264 264
288 287 287 286 286 285 285 285 285 284 284 284 283 283 282 282 282 282 281 281 281 280 280 280 279 279 279 278 278 277 277 276 276 275 275 274 274 274 273 273 273 272 272 272 272 272 271 271 271 271 270 270 270 269 269 269 269 269 269 269 269 269 269 269 268 268 268 268 268 268 267 267 267 267 266 266 266 265 265 265 265 264 264 264 264
286 286 285 285 285 284 284 284 284 283 283 283 282 282 282 281 281 281 281 280 280 280 279 279 278 278 278 277 277 276 275 275 274 274 274 273 273 273 273 272 272 272 272 272 271 271 271 271 271 270 270 270 269 269 269 269 269 269 269 269 269 269 269 269 269 268 268 268 268 267 267 267 267 267 266 266 266 265 265 265 264 264 264 264 264
285 285 284 284 284 284 283 283 283 282 282 282 281 281 281 281 280 280 280 279 279 279 278 278 277 277 276 276 275 275 274 274 273 273 273 273 272 272 272 272 271 271 271 271 271 271 271 271 270 270 270 269 269 269 269 269 269 269 269 269 269 269 269 269 269 268 268 268 268 267 267 267 267 266 266 266 266 266 265 265 264 264 264 264 264
284 284 284 283 283 282 282 282 281 281 281 281 280 280 280 280 280 279 279 278 278 278 277 277 276 276 275 274 274 273 273 273 273 272 272 272 272 271 271 271 271 271 271 271 271 271 270 270 270 269 269 269 269 269 269 269 269 269 269 269 269 269 269 269 268 268 268 268 268 267 267 267 267 266 266 266 266 266 265 265 264 264 264 264 263
283 283 282 282 281 281 281 280 280 280 280 280 279 279 279 279 279 278 278 277 277 277 276 276 275 274 274 273 273 273 272 272 272 272 271 271 271 271 271 271 271 271 271 271 270 270 270 270 269 269 269 268 268 268 269 269 269 269 269 269 269 269 269 269 268 268 268 268 268 268 267 267 267 266 266 266 266 266 265 265 265 264 264 264 263
282 281 281 280 280 280 280 279 279 279 279 279 279 278 278 278 278 277 277 276 276 275 275 274 274 273 273 272 272 272 272 271 271 271 271 271 271 271 271 271 270 270 270 270 270 270 270 269 269 268 268 268 268 268 268 269 269 269 269 269 269 269 269 269 269 268 268 268 268 268 268 267 267 266 266 266 266 265 265 265 265 265 264 264 264
Wind_Speed
25 25 28 31 32 31 30 28 28 29 30 31 32 32 32 29 24 23 25 28 31 32 30 30 32 33 34 37 39 38 36 35 34 34 33 33 33 32 31 30 28 26 25 24 22 19 17 15 13 13 13 13 13 14 14 15 15 16 16 16 17 17 16 17 17 18 20 20 19 21 22 22 24 24 25 25 25 25 25 26 26 26 25 24 25
24 24 25 29 32 32 30 29 29 29 32 34 34 32 31 29 27 26 28 29 31 32 32 31 31 32 35 39 40 38 36 35 35 34 34 34 33 32 31 30 27 25 24 22 19 17 15 14 12 12 12 13 13 15 15 16 16 17 17 18 18 18 18 18 19 19 21 22 21 22 23 24 24 25 26 26 26 27 27 27 27 26 25 25 25
23 22 24 27 31 32 32 31 31 31 32 34 33 32 32 30 28 28 30 30 30 31 32 32 32 33 36 39 40 38 37 36 35 34 34 34 33 32 31 28 26 24 23 20 17 15 13 12 11 11 12 13 14 15 16 16 17 18 19 19 19 20 20 20 20 21 22 23 24 24 25 25 26 26 27 27 27 28 28 28 27 27 26 25 26
22 23 24 26 29 32 33 33 33 33 34 34 32 32 31 29 27 28 30 30 29 30 32 32 32 34 37 40 40 38 37 36 35 34 34 34 33 31 29 27 25 23 20 18 15 14 12 11 11 11 13 14 14 15 16 17 18 20 20 20 21 22 22 21 22 22 23 25 25 25 26 27 28 28 28 28 28 28 28 28 28 27 26 26 26
22 23 25 26 28 32 34 34 34 35 35 35 34 33 32 30 29 29 31 32 30 31 31 31 32 35 38 40 39 38 37 36 35 35 34 34 32 31 28 25 24 22 19 17 16 14 12 12 13 14 16 16 16 15 16 17 19 20 21 21 22 23 23 23 23 24 25 26 27 27 28 29 29 29 28 28 28 28 28 28 27 27 27 27 27
22 23 25 26 28 31 34 35 35 35 35 35 34 35 34 32 29 30 32 32 31 31 31 31 32 35 38 40 39 37 36 36 36 35 34 34 32 30 27 25 24 22 20 18 16 15 15 16 17 18 19 18 18 17 16 17 20 21 22 22 24 24 25 25 25 25 26 27 28 29 30 31 30 29 28 28 28 28 28 28 28 28 28 28 29
23 24 24 26 28 30 32 34 34 34 34 34 33 34 35 32 29 30 31 31 31 32 32 31 31 34 38 39 39 37 37 36 35 35 34 33 32 30 28 26 24 23 21 19 17 17 18 20 20 20 20 20 20 19 18 19 20 21 22 23 25 26 27 27 27 27 27 28 29 30 31 32 31 30 28 28 27 27 28 29 29 29 30 31 31
24 24 24 26 28 29 29 31 33 32 33 33 33 34 35 32 30 31 32 32 31 31 30 29 30 34 38 40 40 38 37 36 36 35 35 33 31 29 28 27 25 23 21 20 19 20 21 22 21 21 20 20 21 21 21 22 22 23 23 24 25 27 28 28 28 28 28 29 30 31 33 34 32 30 29 28 28 27 28 30 31 31 32 34 35
24 25 25 26 28 28 27 28 30 31 31 32 33 34 34 32 31 32 33 33 32 31 31 30 30 34 38 40 40 38 37 37 36 35 35 33 32 30 29 27 25 23 22 21 22 23 23 22 22 21 20 20 20 21 22 24 26 26 25 25 26 27 28 29 29 29 29 30 31 33 35 35 33 31 31 30 29 29 30 32 33 33 34 36 37
24 25 25 25 27 27 27 28 29 31 32 33 33 34 33 32 33 33 33 33 32 33 34 33 32 35 38 40 41 40 38 36 35 34 33 32 31 30 29 28 26 24 24 24 25 25 23 22 23 23 23 22 20 20 21 23 25 27 28 28 28 29 29 30 30 30 30 31 33 35 37 36 34 33 33 32 31 32 32 34 35 35 36 38 39
24 24 24 24 25 26 27 29 30 31 32 34 34 34 33 33 34 33 32 33 34 34 34 33 33 36 39 40 41 41 39 36 35 35 34 33 32 31 30 29 27 26 25 26 27 26 24 23 24 25 26 25 22 20 20 22 23 26 28 30 31 31 31 31 31 31 31 32 35 36 38 38 36 36 36 35 34 35 35 35 37 37 37 39 40
24 24 24 24 24 26 28 29 30 31 31 32 33 33 33 33 33 34 34 34 34 35 35 34 33 36 39 41 41 41 38 36 35 35 34 34 33 32 31 29 27 27 27 28 28 27 25 25 26 27 29 29 26 24 24 24 24 25 27 29 31 32 32 33 33 32 32 34 37 38 39 40 39 39 39 38 37 37 37 38 39 39 39 40 41
23 24 24 24 25 26 28 28 29 30 31 30 30 31 33 34 34 34 34 33 33 35 37 35 34 35 39 41 41 40 37 35 35 34 34 33 33 32 30 29 28 28 28 29 29 28 28 27 27 29 30 31 31 30 29 29 28 28 29 30 32 33 33 34 35 34 34 36 39 40 40 41 42 42 42 41 41 40 41 41 41 41 41 41 42
24 24 24 24 25 25 26 27 28 29 30 30 30 29 30 31 31 32 33 33 33 34 35 34 33 34 38 40 41 40 38 35 34 34 33 33 33 32 31 30 30 29 30 31 30 30 31 29 29 31 32 32 33 33 33 33 33 33 33 33 34 34 35 36 37 37 38 39 42 42 41 42 45 45 44 45 44 44 44 43 43 43 44 43 43
24 24 23 23 24 24 25 26 27 28 28 30 31 30 29 28 28 29 31 31 31 30 31 31 31 33 36 39 41 40 38 35 33 33 33 32 32 32 32 32 32 32 33 32 31 32 33 32 32 35 35 34 33 33 33 35 35 36 37 37 38 38 39 40 40 40 41 42 44 45 44 45 47 47 47 47 47 46 46 46 46 46 46 46 46
23 23 22 22 22 23 24 25 25 26 26 28 29 31 31 30 29 28 28 29 28 27 28 29 30 32 34 37 39 39 37 36 34 33 32 32 32 32 32 33 34 35 34 32 32 34 35 34 35 38 39 36 33 31 32 34 36 39 40 40 41 42 43 44 44 44 45 45 46 47 47 48 49 50 50 49 49 48 48 48 49 49 49 48 48
23 21 20 19 19 20 21 21 22 24 25 26 27 28 29 30 30 29 28 27 26 26 26 27 28 30 33 36 38 38 37 36 35 34 33 33 33 32 32 34 36 36 34 33 34 36 36 36 37 41 41 38 33 31 31 33 36 39 40 42 43 45 46 46 46 47 48 49 49 49 49 50 52 53 52 52 51 48 46 49 51 49 48 48 47
20 19 17 17 16 17 17 18 20 21 22 23 24 25 26 27 28 27 27 26 25 25 26 26 26 28 31 34 36 37 37 37 36 35 34 33 33 32 33 35 35 35 35 35 36 37 38 39 41 43 42 37 33 31 31 34 36 38 40 42 44 47 48 48 48 49 50 51 53 53 52 52 53 54 54 54 51 44 41 47 50 47 46 48 48
17 16 15 15 15 15 15 16 17 17 18 19 20 21 23 23 23 23 23 23 22 22 23 24 24 25 27 30 32 34 35 35 34 33 32 32 32 33 34 35 35 36 37 38 38 39 41 43 44 42 39 35 33 32 32 35 38 39 40 42 46 49 49 48 49 50 50 52 53 53 54 53 52 53 53 51 49 43 38 41 45 46 48 51 49
15 15 15 15 16 15 15 14 14 14 14 15 15 17 18 19 19 19 17 17 17 18 19 19 20 22 25 28 30 30 31 31 32 31 31 32 33 33 34 35 37 38 39 39 40 42 45 46 44 39 36 34 34 34 34 36 38 39 40 43 47 49 47 46 48 49 50 51 52 52 53 52 51 52 51 49 48 46 41 40 43 47 50 51 50
16 17 16 17 16 16 15 14 13 13 13 13 13 13 14 14 14 14 13 13 13 14 15 17 18 19 22 26 29 31 31 32 32 33 34 34 34 34 35 37 38 38 39 40 42 45 46 45 41 37 35 35 35 35 35 35 36 38 41 44 46 46 45 46 48 48 49 50 51 50 51 51 51 51 51 50 48 47 44 43 44 47 48 49 49
17 17 17 17 17 17 16 16 15 14 14 13 13 12 12 12 12 12 13 13 14 14 15 16 16 17 19 22 26 29 31 33 34 36 36 35 34 34 35 37 37 37 39 42 44 44 43 40 38 35 34 35 35 35 36 35 36 38 41 43 43 41 40 42 43 44 45 48 50 49 49 50 51 51 51 50 48 45 42 41 41 42 43 43 44
18 18 18 18 18 18 18 18 18 17 16 16 16 15 15 15 14 14 14 14 14 15 15 15 15 16 17 18 20 22 24 26 28 30 31 31 31 32 34 35 36 36 39 41 40 38 36 35 34 33 33 34 35 36 36 36 36 38 38 37 36 34 33 34 36 37 39 42 46 48 48 49 50 50 49 49 47 45 42 39 38 37 36 36 38
19 19 20 20 20 20 20 20 19 19 19 18 18 17 16 16 16 16 16 16 15 15 15 15 14 14 14 15 15 16 18 19 21 24 25 26 28 29 31 32 32 33 34 34 33 32 31 31 32 32 32 34 35 36 36 35 35 35 34 33 31 31 31 33 35 36 37 39 42 45 46 47 47 47 48 48 47 44 42 40 39 37 34 33 34
20 20 21 21 22 22 21 21 21 20 20 19 18 18 18 17 17 17 17 16 15 15 14 13 13 12 12 12 13 14 15 17 18 20 21 22 24 25 26 27 27 28 28 28 28 28 29 30 31 32 33 34 35 36 37 37 36 35 35 34 33 33 34 35 36 37 38 39 41 42 43 45 46 45 46 46 45 43 41 40 40 40 37 35 34
21 22 22 22 23 23 22 22 22 21 20 19 18 17 17 17 17 16 15 15 14 12 12 11 10 10 10 11 11 12 13 15 16 17 18 20 21 21 22 22 23 23 24 25 26 27 28 29 31 32 34 35 36 38 39 39 39 38 37 36 36 35 35 35 36 37 38 38 40 41 40 40 40 41 41 41 41 41 41 41 41 41 39 36 35
21 22 23 23 22 22 22 22 22 21 20 19 18 17 16 15 14 13 12 11 10 10 10 10 9 10 10 11 12 13 14 14 15 16 16 17 17 18 18 19 19 20 22 23 25 26 28 29 31 32 34 35 36 37 38 37 37 36 34 33 32 32 31 29 30 32 34 36 38 39 39 37 37 38 38 38 39 40 40 40 40 40 38 36 35
21 21 21 21 21 21 21 20 20 20 19 18 17 16 15 14 12 11 10 9 9 9 10 10 10 11 11 12 12 12 12 12 12 13 14 14 15 15 16 17 18 19 21 22 24 26 28 29 31 32 32 33 33 33 33 32 31 30 29 27 27 27 26 24 23 24 25 27 29 32 33 33 34 35 35 35 36 36 36 37 37 37 35 34 34
21 20 20 20 20 20 19 18 17 17 17 17 16 15 14 13 13 13 12 12 12 12 12 12 12 12 12 11 11 10 10 11 12 13 13 14 14 15 16 17 18 19 20 22 24 26 28 29 30 30 30 30 30 30 29 29 30 30 29 29 29 29 27 25 24 23 22 21 22 23 24 25 28 30 31 32 32 33 34 34 35 35 34 33 33
21 20 20 20 19 19 19 19 18 17 17 17 18 18 17 17 16 16 16 15 14 14 13 12 12 11 11 11 10 10 11 11 12 12 13 13 14 15 16 18 19 20 21 23 25 27 28 29 29 30 30 30 30 31 31 31 31 32 32 32 32 31 30 28 27 25 24 23 22 22 22 22 24 26 27 28 28 30 31 31 31 32 33 32 31
20 20 20 19 19 19 19 19 19 19 18 18 18 18 18 19 18 17 16 15 15 14 13 12 11 10 10 10 10 10 10 11 11 12 13 14 16 17 18 19 20 21 22 24 26 28 29 30 30 30 30 30 31 32 32 32 32 33 33 33 33 31 30 30 29 27 25 25 24 24 23 23 23 23 23 24 24 26 27 27 27 28 29 29 29
19 20 20 20 19 19 19 19 19 19 19 19 18 18 18 18 17 17 16 15 14 13 12 11 10 10 10 10 10 10 10 11 12 14 15 16 17 18 19 20 21 22 22 23 24 26 26 27 28 28 28 29 30 31 31 32 32 32 33 33 33 31 29 29 30 29 27 26 25 25 25 24 24 23 23 23 23 24 25 26 26 26 26 27 27
18 19 19 20 20 20 19 19 19 18 18 18 18 17 16 16 16 16 15 15 13 12 11 11 11 10 10 10 10 11 12 13 14 15 15 16 17 18 19 20 21 22 22 22 22 23 23 24 25 26 27 28 29 30 30 31 31 32 32 32 33 33 31 31 31 31 29 27 26 26 26 26 26 25 25 25 25 26 27 28 28 28 28 28 28
18 18 18 18 19 19 19 18 18 17 17 17 17 17 16 16 15 14 13 12 12 11 11 11 11 10 11 11 12 12 13 13 14 15 16 16 17 18 19 20 20 21 22 21 21 22 23 24 25 26 27 27 28 29 30 30 31 32 32 32 33 33 33 32 31 31 30 29 28 28 27 27 27 28 28 28 28 29 29 30 30 30 30 30 29
19 18 18 18 17 18 18 18 17 17 17 17 17 16 16 15 14 13 12 11 11 11 11 11 11 11 12 12 12 13 13 14 14 15 16 17 17 18 19 20 20 20 21 21 21 22 23 24 25 25 26 26 27 27 28 29 29 30 31 31 31 32 32 32 31 31 31 31 30 29 29 29 29 29 29 29 30 31 31 31 31 31 31 30 29
19 18 18 18 17 17 17 17 17 17 17 16 16 15 14 13 12 12 12 12 12 11 11 12 12 12 12 12 12 13 14 14 15 16 17 18 18 19 19 20 20 21 21 21 22 22 23 24 25 25 25 25 26 26 27 27 27 28 29 30 30 31 32 32 32 32 32 32 31 30 30 30 29 29 30 30 30 30 30 30 31 30 30 29 28
18 17 16 17 17 17 17 17 16 16 15 14 14 13 13 13 13 13 12 12 12 12 13 13 12 12 12 12 13 13 14 15 16 17 18 18 18 19 19 20 20 21 22 23 23 23 23 23 24 24 25 25 25 25 25 26 26 26 27 28 28 29 30 30 30 30 30 30 30 30 29 29 28 29 29 29 29 29 29 29 30 30 29 29 28
16 16 16 16 16 16 16 16 15 15 14 14 14 14 14 14 14 13 13 13 13 13 13 13 12 12 12 13 13 14 15 16 17 18 19 19 19 20 20 21 21 22 22 23 23 23 23 23 23 23 24 24 24 24 24 24 24 25 25 25 26 26 26 26 26 26 26 26 26 26 25 25 25 25 26 27 27 27 27 28 28 29 28 28 27
17 17 16 16 16 16 16 15 15 15 15 15 16 15 15 15 14 14 14 13 13 13 12 12 12 12 12 13 14 15 16 17 18 18 19 19 20 20 21 21 22 22 22 22 23 23 22 22 22 22 22 23 23 23 23 23 23 23 23 24 24 23 23 23 23 23 23 23 23 22 21 21 21 21 22 22 22 23 23 24 25 25 25 26 26
17 17 17 17 17 17 17 17 17 17 17 16 16 15 15 14 14 13 13 12 12 12 12 12 13 14 13 14 15 16 17 17 18 18 19 19 20 20 21 21 21 22 22 22 22 22 21 21 21 21 21 21 22 22 22 22 22 22 22 22 22 22 22 22 22 22 21 21 21 20 20 19 19 19 19 19 19 20 21 21 22 22 23 24 25
17 17 17 18 17 18 18 18 18 17 17 16 15 14 14 13 13 12 12 11 11 12 13 14 14 15 15 15 15 16 17 18 18 19 19 20 20 20 21 21 21 21 21 21 21 21 20 20 20 20 20 20 21 21 21 21 21 21 21 21 21 21 21 21 21 21 20 20 20 19 19 18 18 18 18 18 18 19 20 20 21 21 22 22 23
18 18 18 18 18 18 18 18 17 16 15 15 14 13 13 12 12 12 11 12 12 13 14 15 15 16 16 16 16 16 17 18 19 20 20 20 20 20 20 21 21 21 21 21 20 20 19 19 19 19 19 19 20 20 20 21 20 20 20 20 20 20 19 19 19 19 19 19 18 18 18 18 18 18 18 18 19 19 20 20 21 21 21 21 22
18 18 18 18 19 18 18 17 16 15 15 14 13 13 12 12 12 12 12 13 13 14 14 15 15 15 16 17 17 18 18 19 20 21 21 21 20 20 20 20 20 20 20 20 19 19 18 18 18 18 18 18 19 19 19 19 19 19 19 18 18 17 17 18 18 18 18 18 18 18 18 18 18 18 18 19 19 19 20 20 20 20 20 20 20
18 19 19 19 18 18 17 17 16 15 14 14 13 13 12 12 12 12 12 13 14 14 15 15 16 16 17 18 18 19 20 20 21 21 21 21 20 20 20 19 19 19 19 19 19 18 18 17 17 17 18 18 18 18 18 18 18 17 17 17 16 16 16 16 17 17 17 17 17 17 17 17 17 18 18 19 19 19 19 19 19 20 19 19 19
19 19 18 18 18 17 17 16 15 15 14 13 13 12 12 11 11 12 13 13 14 14 15 16 16 17 18 19 19 20 20 21 21 21 21 20 20 20 19 19 18 19 19 19 18 18 18 17 17 17 17 18 19 19 18 17 16 16 16 15 15 15 15 16 17 17 17 18 18 18 17 17 17 17 18 18 19 19 19 19 19 19 19 19 18
18 18 18 17 17 16 16 15 15 14 13 12 12 11 11 12 12 13 13 14 14 15 16 17 18 18 19 20 20 20 21 21 21 21 20 20 20 19 19 18 18 18 18 19 18 18 18 18 18 17 17 18 19 19 18 17 16 15 15 15 15 15 15 16 17 17 18 19 19 19 18 18 18 17 18 18 19 19 19 19 19 19 19 18 18
18 18 18 17 16 16 15 14 13 13 12 12 12 11 12 12 13 14 14 15 15 16 17 18 19 19 20 20 21 21 20 20 20 20 20 20 19 19 18 18 18 18 18 18 19 19 19 19 19 19 18 18 18 18 18 17 16 15 15 15 15 16 16 17 18 18 19 19 19 19 19 19 18 18 18 18 18 19 19 18 18 18 18 18 18
18 18 17 16 15 14 14 13 12 12 12 12 12 12 13 13 14 15 15 16 17 17 18 19 20 20 21 21 21 21 20 20 20 20 19 19 19 19 19 18 18 19 19 19 19 20 20 20 20 20 19 19 18 18 18 17 17 16 15 16 16 16 17 18 18 19 19 20 19 19 19 19 18 18 18 18 18 18 18 18 17 17 17 17 17
18 17 16 15 14 13 12 12 12 12 12 12 13 13 14 14 15 15 16 17 18 19 20 20 21 21 21 21 21 21 20 20 20 19 19 19 19 19 19 19 19 20 20 20 20 21 22 21 21 20 20 19 19 18 18 17 17 16 16 16 17 17 18 18 19 19 20 20 19 19 19 19 18 18 17 17 17 17 17 17 17 17 17 17 16
17 15 14 13 13 12 12 12 12 12 13 13 14 14 15 15 16 17 17 18 19 20 21 21 21 21 21 21 21 21 20 20 19 19 19 19 19 20 21 21 21 21 21 21 21 22 23 22 22 21 20 20 20 19 18 18 17 17 17 17 17 18 18 19 19 19 20 20 19 19 18 18 17 17 17 17 17 17 17 17 17 17 17 16 16
15 14 13 13 12 12 12 12 13 13 13 14 14 15 16 17 17 18 19 19 20 21 21 21 21 21 21 21 21 21 20 20 20 19 19 19 20 21 22 22 22 22 23 23 23 23 23 23 23 22 21 21 20 20 19 19 18 18 18 17 17 18 18 19 19 19 19 19 19 18 17 17 17 16 16 16 16 16 16 17 17 17 17 16 16
Wind_Direction
247 242 238 234 233 233 230 229 226 223 222 224 227 227 222 222 230 233 229 226 224 224 226 226 227 230 230 221 213 212 213 213 214 214 215 216 217 218 218 218 217 216 217 218 217 219 221 224 232 240 247 254 259 262 263 264 265 265 265 265 266 268 270 272 273 274 279 284 286 287 288 289 290 291 291 291 293 295 295 295 296 298 300 301 302
251 246 241 236 233 232 230 229 226 224 225 226 225 224 226 230 232 230 228 225 225 227 228 228 230 231 228 220 214 214 215 215 216 215 216 218 218 219 218 217 217 216 217 218 218 222 225 230 237 245 252 261 266 268 268 268 268 269 269 269 270 271 272 274 275 276 279 283 285 286 288 290 291 292 292 293 294 294 294 293 294 295 297 299 301
255 249 243 239 235 232 229 228 226 224 224 225 223 224 230 231 226 226 227 223 224 230 231 231 231 230 226 219 216 216 217 216 217 217 218 219 219 220 219 218 218 217 218 219 218 222 228 233 241 250 258 265 268 269 271 273 273 273 272 272 273 274 274 274 276 277 279 282 285 288 290 291 291 291 292 293 294 293 293 292 293 294 296 298 301
256 251 245 241 237 232 229 226 225 223 221 223 225 227 230 231 228 228 228 224 225 230 232 231 231 228 224 219 218 218 219 218 218 219 220 221 221 222 221 219 219 218 218 218 218 220 226 232 241 251 257 261 264 268 272 276 277 276 274 275 275 276 276 276 276 278 279 282 287 290 291 291 291 292 292 293 293 292 291 291 292 293 296 299 300
256 253 247 243 238 233 230 226 225 223 221 223 227 227 227 230 235 235 232 228 225 227 231 231 229 228 223 220 220 221 221 221 220 221 221 222 222 222 221 221 220 218 216 216 215 215 220 230 241 247 251 253 256 262 268 273 275 275 276 277 278 278 278 277 277 278 280 284 288 290 290 291 292 292 293 293 291 291 291 291 292 293 296 297 297
255 252 249 245 241 235 231 228 226 223 223 224 228 229 226 226 233 237 237 232 223 225 234 233 229 228 226 223 222 223 224 223 222 222 223 223 223 222 220 220 219 217 215 214 213 214 223 234 242 247 250 252 253 255 259 265 271 274 276 278 279 280 280 279 279 279 281 284 287 289 290 291 292 293 293 292 290 290 290 291 293 294 295 295 295
255 251 249 247 244 239 234 231 228 225 223 225 228 230 228 226 231 236 238 236 226 224 234 235 230 230 228 225 224 225 225 225 224 224 224 225 224 223 221 220 218 216 214 213 215 222 232 240 246 252 256 258 258 255 253 257 265 270 273 276 279 280 281 281 281 281 282 284 286 288 289 290 292 293 293 291 290 289 290 291 293 294 295 296 296
255 252 249 246 245 243 238 234 231 226 224 224 227 230 229 228 232 233 233 237 234 229 233 236 232 230 230 227 225 225 225 226 225 225 225 225 225 224 222 221 219 217 214 216 223 232 239 245 252 258 262 267 268 263 258 256 258 262 265 270 276 280 282 283 282 282 283 285 286 286 288 289 291 293 291 290 289 288 289 290 291 293 294 295 296
255 253 249 246 245 244 241 236 232 228 225 225 226 229 231 232 235 233 230 233 237 235 236 237 232 230 230 228 226 226 226 226 227 227 227 227 225 224 223 221 220 219 220 224 231 237 243 252 260 263 265 270 274 273 270 267 265 264 263 264 270 276 281 283 284 285 285 285 285 285 286 288 290 291 289 288 288 288 288 288 289 292 293 294 295
255 253 251 247 245 243 241 238 233 228 225 226 227 229 232 235 237 236 231 230 232 233 234 233 230 229 229 228 227 227 226 227 228 229 229 229 227 226 224 222 221 222 225 230 236 242 250 261 269 268 265 267 273 279 283 282 278 273 270 268 268 271 276 280 282 285 286 286 284 285 286 287 288 289 287 286 286 286 287 288 289 290 291 293 295
253 252 251 248 244 242 240 238 235 231 227 227 229 230 232 235 238 239 236 231 229 232 235 234 229 227 228 228 227 227 226 227 227 228 229 229 227 227 226 223 223 224 228 235 243 249 257 267 274 273 268 265 267 276 284 287 285 279 276 275 273 271 273 275 279 283 285 284 283 283 285 286 286 286 285 285 285 285 287 287 287 288 289 290 293
249 249 248 245 241 238 238 237 235 233 230 229 230 232 233 235 237 239 240 236 231 232 236 235 230 228 227 227 227 227 227 228 228 229 229 228 227 226 225 224 224 227 233 243 251 254 259 270 278 278 274 269 265 267 274 280 284 283 281 279 277 275 273 273 277 280 282 281 281 281 283 284 284 284 285 285 286 286 286 285 285 287 287 288 290
243 244 244 243 240 237 236 236 235 233 231 231 231 232 234 236 236 237 241 242 238 234 235 234 231 229 228 227 226 226 228 229 230 231 230 230 230 228 227 227 228 232 242 253 258 257 259 269 280 283 281 276 269 266 268 273 279 282 283 283 281 279 276 274 275 277 278 278 279 279 281 283 284 284 286 286 286 286 285 285 286 286 286 287 288
238 240 242 242 240 238 237 236 236 235 232 231 232 233 234 237 239 240 242 245 244 239 237 235 231 229 228 227 225 225 226 227 230 233 233 232 232 231 231 232 233 241 251 258 261 259 259 267 281 288 286 280 275 273 272 273 276 279 281 282 283 282 280 277 276 275 276 276 278 279 282 283 284 285 286 286 286 286 286 286 287 286 285 286 287
237 238 240 240 239 238 237 236 236 236 233 231 232 233 234 236 239 242 244 247 246 242 239 237 233 230 229 227 225 224 225 226 230 233 233 233 234 234 235 236 239 248 255 259 264 263 260 265 280 289 289 283 280 280 279 278 279 279 279 281 283 284 282 281 280 279 279 279 279 280 282 283 285 286 286 286 286 286 286 286 286 284 284 284 286
237 237 237 237 237 236 235 235 235 235 234 232 232 233 234 236 238 241 244 246 244 239 238 238 236 233 231 228 225 224 225 227 230 233 233 234 235 235 237 240 245 251 256 263 269 267 263 266 278 289 289 284 282 284 285 284 282 281 280 281 283 284 283 282 282 282 283 284 284 285 284 284 285 285 286 286 285 284 284 283 282 281 282 283 285
235 235 234 233 232 232 232 233 234 234 234 233 232 232 234 237 240 241 244 245 242 238 237 237 236 234 231 228 225 225 226 227 229 230 232 232 234 236 240 244 248 253 260 268 271 268 266 267 277 287 288 283 282 284 286 286 284 283 283 283 284 284 283 282 283 284 284 285 286 287 287 286 285 285 285 285 284 282 280 280 280 280 281 282 284
231 229 227 224 222 222 225 227 230 232 233 233 232 231 233 238 242 244 245 245 242 239 239 238 236 235 232 229 227 226 226 226 227 228 229 230 234 238 242 245 249 255 263 269 270 269 267 269 277 285 285 281 281 283 284 285 285 285 285 286 285 283 282 283 286 287 286 285 285 284 285 286 285 284 283 283 282 279 275 277 281 281 279 281 284
223 218 214 211 209 210 214 218 223 226 228 231 231 231 233 238 243 246 246 246 243 241 241 241 238 234 232 231 231 230 228 227 226 227 227 230 236 241 244 247 251 257 265 269 270 270 270 273 279 282 279 278 280 281 282 284 285 285 286 286 284 281 282 286 289 289 288 286 284 283 282 283 283 281 280 280 279 274 267 270 276 276 277 282 284
207 202 200 197 196 197 200 206 210 213 216 221 223 225 229 234 240 245 247 246 243 240 239 240 238 235 231 229 229 229 230 229 228 228 229 233 239 243 245 249 254 260 266 269 270 272 275 278 280 278 275 276 278 279 280 283 284 284 284 282 280 280 285 289 288 288 287 285 285 285 284 283 283 282 280 280 278 276 271 269 271 273 276 280 281
194 192 190 188 187 186 186 188 192 195 200 204 209 214 219 224 230 234 235 234 230 227 227 228 228 228 227 226 224 223 225 226 227 228 231 236 240 244 247 251 257 262 266 268 270 273 276 277 277 276 277 280 282 283 285 285 285 284 281 280 281 284 288 288 286 287 288 286 285 286 286 286 285 284 284 283 283 282 281 279 278 278 278 278 277
186 184 182 180 178 176 174 174 176 179 181 182 185 190 193 198 206 212 216 217 214 212 212 213 215 216 218 220 221 221 222 224 227 229 233 237 241 245 249 254 258 262 264 267 269 272 274 275 277 280 284 286 287 288 287 286 284 282 281 282 285 287 289 289 289 290 291 290 290 290 290 290 290 289 290 290 291 292 292 290 288 285 283 281 279
177 176 173 172 170 168 167 167 167 167 167 168 171 176 180 186 191 196 201 201 200 201 201 201 204 207 208 211 213 216 219 222 226 229 233 237 240 245 249 253 257 259 262 265 269 271 274 277 281 284 285 286 286 285 285 285 285 284 285 286 287 287 286 286 286 287 287 288 290 291 292 292 293 294 296 297 297 299 300 297 293 289 286 284 282
170 168 166 165 165 164 163 163 163 164 166 167 171 174 178 183 187 189 192 193 194 196 196 196 199 201 203 206 208 211 216 220 224 228 231 235 239 243 247 251 254 257 260 264 269 273 277 280 283 284 284 284 285 286 287 288 288 288 289 288 286 285 283 281 280 280 280 281 282 285 288 290 291 293 295 297 297 299 299 297 294 292 291 286 282
165 164 163 163 163 163 162 162 164 165 167 168 171 174 177 181 185 187 188 189 191 193 192 194 196 198 201 205 208 212 216 219 223 226 229 232 236 240 244 248 251 255 260 266 272 276 278 281 283 284 285 286 287 288 289 290 290 290 289 288 287 285 284 282 280 278 278 278 278 279 282 284 287 289 291 293 295 295 296 296 295 295 295 290 285
163 163 163 162 162 162 162 162 163 166 167 168 170 173 177 180 182 183 184 185 186 186 187 189 190 192 195 199 203 207 211 215 220 224 227 231 235 239 244 248 253 258 264 270 274 277 279 282 284 285 287 288 289 289 290 291 291 291 291 291 289 288 286 284 281 279 278 278 278 280 282 283 286 287 288 289 291 292 293 295 295 296 296 293 289
165 164 163 163 163 163 164 165 165 166 167 167 167 170 173 175 177 178 180 182 182 182 184 186 187 189 190 194 199 205 209 214 219 224 230 235 239 243 249 255 260 264 268 272 275 278 281 283 284 285 286 287 288 289 290 291 292 293 294 294 294 294 292 288 283 280 279 279 280 283 286 286 286 285 285 286 288 289 291 293 294 295 297 295 290
166 165 165 165 165 166 167 169 169 168 167 167 168 170 171 172 172 173 174 175 180 183 186 187 187 189 192 197 202 208 211 217 222 228 236 242 247 252 257 260 264 267 271 275 279 281 282 283 284 285 286 287 288 289 290 292 292 293 294 295 298 300 300 297 294 290 287 285 284 284 284 284 283 283 285 287 288 290 292 293 294 296 297 294 289
170 170 170 170 170 170 170 171 171 171 170 168 168 168 168 168 169 172 175 177 180 183 186 187 189 191 194 199 204 208 215 223 230 236 243 249 255 260 264 268 273 276 279 281 282 282 283 283 284 286 288 289 291 293 296 298 300 301 303 305 309 311 312 310 308 306 303 301 299 296 292 290 288 288 289 291 291 292 294 294 295 296 296 293 290
173 173 172 172 171 170 169 168 168 169 169 168 168 168 168 169 171 174 178 180 180 182 184 187 190 193 198 205 211 216 224 234 241 248 255 261 266 270 274 276 279 280 281 282 284 284 286 288 291 294 297 299 301 303 307 309 310 311 313 314 316 317 317 315 313 311 307 303 301 301 298 294 291 290 290 291 292 292 293 294 295 295 295 294 291
171 169 167 167 166 165 166 165 165 166 167 168 170 170 170 171 172 174 178 180 182 185 188 192 198 203 210 219 226 231 237 246 253 260 265 268 271 274 277 280 282 285 288 290 291 292 294 297 300 301 303 304 306 308 310 311 311 313 314 315 315 314 313 311 311 310 307 303 300 299 299 295 293 292 291 290 291 291 291 292 292 293 294 294 291
168 165 163 163 162 162 164 164 164 165 166 167 169 171 173 174 174 175 180 185 189 192 196 204 212 219 225 232 239 245 251 255 259 263 267 271 275 279 284 287 290 292 294 294 294 294 295 296 298 299 301 302 304 305 306 307 307 308 309 309 308 307 305 304 305 305 304 302 300 299 298 296 295 294 292 291 292 291 292 292 293 293 292 291 290
166 165 163 161 160 162 163 163 164 165 166 168 171 174 177 181 183 185 188 192 196 201 207 216 223 229 234 239 245 251 255 259 263 268 273 278 283 287 289 291 293 293 294 294 293 292 292 291 292 294 295 296 297 297 298 298 297 297 297 297 298 299 299 298 300 301 301 300 298 297 296 294 294 293 292 291 291 290 291 291 292 292 291 290 289
163 164 163 162 162 164 164 166 169 171 173 176 179 182 185 187 191 197 201 203 207 211 216 222 229 237 244 249 253 256 261 266 271 276 281 284 287 289 290 292 293 293 294 295 294 294 294 294 293 293 292 291 291 291 291 290 290 290 291 292 293 295 295 296 297 298 299 298 297 296 294 292 291 290 289 289 288 288 288 288 288 288 288 288 289
164 166 166 167 170 172 173 176 179 182 185 187 188 191 194 196 199 205 210 214 218 221 226 231 237 242 247 251 256 261 267 273 276 280 284 286 288 291 292 293 294 294 294 295 294 294 294 294 293 293 293 292 292 292 292 291 291 290 291 291 292 292 293 294 294 295 296 296 296 295 294 292 291 289 288 287 287 287 287 287 287 288 288 288 289
171 174 176 178 181 184 187 189 190 192 194 195 195 197 200 203 207 212 216 221 225 229 234 238 242 246 249 254 260 265 270 275 278 281 285 288 291 293 293 294 295 295 295 294 294 293 292 292 292 294 294 295 295 296 295 295 293 292 291 290 290 291 291 292 293 293 294 294 294 293 292 291 290 289 288 287 286 286 286 286 286 287 287 288 288
182 187 191 193 194 196 198 199 198 198 199 199 201 204 206 209 213 217 222 227 230 233 237 239 242 246 252 258 264 269 273 277 281 285 288 290 292 293 293 294 294 294 294 294 293 292 292 292 293 294 295 296 296 296 296 296 295 294 294 293 293 293 294 294 294 294 294 294 294 294 293 293 292 291 290 289 288 288 288 287 287 288 288 289 289
192 197 202 204 204 204 204 203 202 202 202 204 206 209 212 215 218 221 225 229 232 234 238 241 245 249 255 260 266 271 276 280 285 288 290 292 294 294 294 294 293 292 292 292 292 293 293 294 295 295 295 295 296 296 297 297 298 298 298 298 298 298 298 298 298 298 297 298 298 298 299 299 298 296 294 293 293 292 291 290 290 290 290 291 292
201 203 204 205 205 204 204 205 205 206 207 209 211 213 216 218 221 223 225 229 232 236 241 246 250 253 257 262 268 274 279 284 287 290 291 293 294 293 292 292 291 291 292 292 292 293 294 294 294 295 295 295 296 297 298 299 300 301 301 301 302 302 302 303 303 303 303 303 304 305 306 305 304 302 300 300 299 298 296 294 293 293 293 293 293
206 206 205 205 205 205 205 207 209 210 211 212 213 215 216 218 221 224 227 231 236 242 248 253 257 260 263 268 274 280 284 286 288 289 289 289 289 288 288 289 290 291 292 293 293 293 293 293 294 294 295 296 296 297 299 300 301 302 303 303 305 305 306 306 307 307 308 308 308 310 311 310 308 306 305 305 304 302 301 299 298 297 297 296 295
208 208 207 206 207 208 209 210 210 211 212 213 213 214 216 219 221 226 231 236 242 248 254 258 263 267 271 274 278 281 283 284 285 286 285 285 285 286 287 289 290 291 291 291 291 291 292 292 293 293 294 296 296 297 299 300 301 303 304 305 307 307 308 308 309 310 311 311 312 312 313 313 312 311 310 309 307 305 304 304 303 302 301 300 298
210 210 211 211 210 211 212 212 212 212 211 212 214 216 219 223 227 233 238 245 250 255 260 264 268 272 276 278 280 280 280 282 282 282 283 284 285 287 288 289 289 290 290 290 290 290 290 291 292 293 294 294 295 296 297 299 301 303 305 306 307 308 308 309 310 311 311 312 312 312 313 313 313 312 310 309 307 306 305 305 305 305 305 304 303
212 212 213 214 213 212 212 212 212 211 212 213 216 220 223 229 235 242 248 254 259 263 265 269 272 274 276 279 279 279 279 279 280 281 283 285 286 288 288 289 288 288 288 288 288 288 289 290 292 293 293 293 293 294 296 298 300 302 303 305 306 307 308 309 309 311 312 312 311 312 312 312 312 311 310 308 307 306 307 307 306 307 308 308 306
214 215 214 213 212 211 210 209 209 211 213 215 219 224 230 236 243 249 255 259 262 265 267 270 272 274 276 276 277 278 279 280 282 284 285 287 288 288 288 287 287 287 287 287 286 286 287 289 290 291 293 293 294 295 296 297 299 301 302 303 304 305 306 307 308 309 310 310 310 311 311 311 311 310 309 308 307 307 307 307 307 308 309 309 308
214 214 213 212 210 209 208 208 210 212 215 220 225 231 238 244 249 254 258 261 263 265 268 270 271 273 274 275 276 278 280 282 284 286 287 288 288 288 287 287 287 286 286 285 285 285 287 288 289 291 292 293 294 295 296 296 298 299 299 300 302 303 304 305 306 308 308 308 309 310 309 309 310 309 309 309 309 308 308 308 307 306 307 307 307
211 210 208 208 207 207 208 210 213 217 222 228 234 239 244 248 252 256 259 262 264 265 267 269 270 272 273 275 277 279 281 283 285 286 287 287 287 287 287 286 285 284 284 284 285 287 288 289 290 291 291 291 292 293 294 294 295 296 296 297 299 301 302 302 303 305 305 305 305 306 307 307 307 308 308 308 308 308 308 306 305 305 305 305 305
206 205 204 204 205 208 211 214 219 224 229 234 238 242 246 250 254 258 260 262 264 265 267 269 271 273 275 278 279 281 282 284 285 285 285 285 285 285 285 284 283 283 283 284 286 287 288 288 290 290 289 289 289 289 289 291 291 291 292 294 296 298 300 301 301 302 302 302 302 303 303 304 305 305 306 306 306 307 307 306 305 304 303 303 303
203 203 204 206 208 212 216 220 225 230 234 238 241 245 248 252 256 258 260 262 263 266 268 271 273 276 278 279 281 282 283 283 284 283 283 282 282 282 282 282 282 282 283 284 285 286 286 287 288 287 287 286 285 285 284 284 285 287 289 291 294 296 298 299 300 300 299 299 300 300 301 301 302 302 302 302 303 304 305 305 305 303 302 302 302
203 204 206 209 212 215 220 225 230 234 238 241 244 248 251 255 257 259 262 264 266 269 271 274 276 278 279 280 281 282 282 282 281 281 281 281 281 281 281 281 281 281 282 283 283 284 285 286 286 285 284 283 281 281 280 279 280 282 285 288 291 294 296 298 299 298 297 298 299 299 300 300 300 299 299 299 299 301 302 304 304 303 301 301 301
205 206 208 211 215 219 224 229 233 238 241 244 248 252 255 258 261 263 266 268 270 273 275 277 278 279 280 280 280 280 280 280 279 279 280 280 280 280 280 281 281 281 281 282 281 282 283 284 283 282 281 280 278 277 276 275 276 278 282 285 289 292 294 295 296 296 295 296 296 297 298 299 298 297 296 295 296 298 299 300 301 301 301 301 300
206 208 211 215 219 224 230 235 239 243 247 250 254 258 261 264 266 268 270 273 275 276 277 278 279 279 279 279 279 279 279 279 279 279 279 279 279 279 279 280 280 280 280 280 280 280 280 281 281 280 278 277 276 274 273 272 273 276 279 283 287 290 292 293 294 294 293 293 294 296 298 299 298 296 295 294 294 296 297 297 298 298 299 299 300